Time,TemperatureF,DewpointF,PressureIn,WindDirection,WindDirectionDegrees,WindSpeedMPH,WindSpeedGustMPH,Humidity,HourlyPrecipIn,Conditions,Clouds,dailyrainin,SoftwareType,DateUTC
2013-02-21 00:02:00,15.0,11.0,-100.00,NNW,335,12.0,22.0,86,-99.99,,,-99.99,,2013-02-21 05:02:00,
2013-02-21 00:12:00,15.0,11.0,-100.00,NNW,335,12.0,22.0,86,-99.99,,,-99.99,,2013-02-21 05:12:00,
2013-02-21 00:22:00,15.0,12.0,-100.00,NNW,330,11.0,21.0,86,-99.99,,,-99.99,,2013-02-21 05:22:00,
2013-02-21 00:34:00,15.0,12.0,-100.00,NW,315,11.0,19.0,87,-99.99,,,-99.99,,2013-02-21 05:34:00,
2013-02-21 00:44:00,15.0,12.0,-100.00,NW,315,11.0,19.0,87,-99.99,,,-99.99,,2013-02-21 05:44:00,
2013-02-21 00:53:00,16.0,13.0,-100.00,North,350,8.0,17.0,88,-99.99,,,-99.99,,2013-02-21 05:53:00,
2013-02-21 01:01:00,16.0,13.0,-100.00,North,350,8.0,17.0,88,-99.99,,,-99.99,,2013-02-21 06:01:00,
2013-02-21 01:11:00,16.0,13.0,-100.00,North,355,11.0,16.0,88,-99.99,,,-99.99,,2013-02-21 06:11:00,
2013-02-21 01:21:00,16.0,13.0,-100.00,North,355,11.0,16.0,88,-99.99,,,-99.99,,2013-02-21 06:21:00,
2013-02-21 01:31:00,16.0,13.0,-100.00,North,350,9.0,17.0,88,-99.99,,,-99.99,,2013-02-21 06:31:00,
2013-02-21 01:41:00,16.0,13.0,-100.00,North,350,9.0,17.0,88,-99.99,,,-99.99,,2013-02-21 06:41:00,
2013-02-21 01:51:00,16.0,14.0,-100.00,North,5,6.0,15.0,89,-99.99,,,-99.99,,2013-02-21 06:51:00,
2013-02-21 02:01:00,17.0,14.0,-100.00,North,355,6.0,14.0,89,-99.99,,,-99.99,,2013-02-21 07:01:00,
2013-02-21 02:11:00,17.0,14.0,-100.00,North,355,6.0,14.0,89,-99.99,,,-99.99,,2013-02-21 07:11:00,
2013-02-21 02:21:00,17.0,14.0,-100.00,North,5,7.0,15.0,90,-99.99,,,-99.99,,2013-02-21 07:21:00,
2013-02-21 02:32:00,17.0,14.0,-100.00,North,350,7.0,13.0,90,-99.99,,,-99.99,,2013-02-21 07:32:00,
2013-02-21 02:42:00,17.0,14.0,-100.00,North,350,7.0,13.0,90,-99.99,,,-99.99,,2013-02-21 07:42:00,
2013-02-21 02:52:00,17.0,15.0,-100.00,North,5,8.0,13.0,91,-99.99,,,-99.99,,2013-02-21 07:52:00,
2013-02-21 03:01:00,18.0,15.0,-100.00,North,10,6.0,11.0,90,-99.99,,,-99.99,,2013-02-21 08:01:00,
2013-02-21 03:11:00,18.0,15.0,-100.00,North,10,6.0,11.0,90,-99.99,,,-99.99,,2013-02-21 08:11:00,
2013-02-21 03:20:00,19.0,16.0,-100.00,NNE,20,6.0,16.0,88,-99.99,,,-99.99,,2013-02-21 08:20:00,
2013-02-21 03:21:00,18.0,16.0,-100.00,NNW,345,6.0,12.0,90,-99.99,,,-99.99,,2013-02-21 08:21:00,
2013-02-21 03:32:00,18.0,16.0,-100.00,NNE,20,8.0,15.0,89,-99.99,,,-99.99,,2013-02-21 08:32:00,
2013-02-21 03:42:00,18.0,16.0,-100.00,NNE,20,8.0,15.0,89,-99.99,,,-99.99,,2013-02-21 08:42:00,
2013-02-21 03:52:00,19.0,16.0,-100.00,NNW,340,8.0,13.0,88,-99.99,,,-99.99,,2013-02-21 08:52:00,
2013-02-21 04:01:00,19.0,16.0,-100.00,NNE,20,6.0,16.0,88,-99.99,,,-99.99,,2013-02-21 09:01:00,
2013-02-21 04:11:00,19.0,16.0,-100.00,NNE,20,6.0,16.0,88,-99.99,,,-99.99,,2013-02-21 09:11:00,
2013-02-21 07:11:00,19.0,18.0,-100.00,North,5,6.0,18.0,94,-99.99,,,-99.99,,2013-02-21 12:11:00,
2013-02-21 07:21:00,19.0,18.0,-100.00,North,5,6.0,18.0,94,-99.99,,,-99.99,,2013-02-21 12:21:00,
2013-02-21 07:32:00,19.0,18.0,-100.00,NNE,20,9.0,20.0,95,-99.99,,,-99.99,,2013-02-21 12:32:00,
2013-02-21 07:42:00,19.0,18.0,-100.00,North,5,11.0,20.0,95,-99.99,,,-99.99,,2013-02-21 12:42:00,
2013-02-21 07:52:00,19.0,18.0,-100.00,North,5,11.0,20.0,95,-99.99,,,-99.99,,2013-02-21 12:52:00,
2013-02-21 08:02:00,19.0,18.0,-100.00,North,5,9.0,17.0,95,-99.99,,,-99.99,,2013-02-21 13:02:00,
2013-02-21 08:12:00,20.0,19.0,-100.00,NNE,20,8.0,16.0,96,-99.99,,,-99.99,,2013-02-21 13:12:00,
2013-02-21 08:22:00,20.0,19.0,-100.00,NNE,20,8.0,16.0,96,-99.99,,,-99.99,,2013-02-21 13:22:00,
2013-02-21 08:32:00,20.0,19.0,-100.00,NNE,20,9.0,19.0,96,-99.99,,,-99.99,,2013-02-21 13:32:00,
2013-02-21 08:41:00,20.0,19.0,-100.00,NNE,20,9.0,19.0,96,-99.99,,,-99.99,,2013-02-21 13:41:00,
2013-02-21 08:51:00,20.0,19.0,-100.00,NNE,15,6.0,14.0,97,-99.99,,,-99.99,,2013-02-21 13:51:00,
2013-02-21 09:02:00,20.0,19.0,-100.00,North,0,7.0,15.0,97,-99.99,,,-99.99,,2013-02-21 14:02:00,
2013-02-21 09:11:00,20.0,19.0,-100.00,North,0,7.0,15.0,97,-99.99,,,-99.99,,2013-02-21 14:11:00,
2013-02-21 09:21:00,20.0,19.0,-100.00,North,5,11.0,17.0,97,-99.99,,,-99.99,,2013-02-21 14:21:00,
2013-02-21 09:32:00,20.0,20.0,-100.00,North,10,9.0,19.0,98,-99.99,,,-99.99,,2013-02-21 14:32:00,
2013-02-21 09:42:00,20.0,20.0,-100.00,North,10,9.0,19.0,98,-99.99,,,-99.99,,2013-02-21 14:42:00,
2013-02-21 09:52:00,20.0,19.0,-100.00,North,10,9.0,26.0,97,-99.99,,,-99.99,,2013-02-21 14:52:00,
2013-02-21 10:01:00,20.0,20.0,-100.00,NNE,20,13.0,21.0,97,-99.99,,,-99.99,,2013-02-21 15:01:00,
2013-02-21 10:12:00,20.0,20.0,-100.00,NNE,20,13.0,21.0,97,-99.99,,,-99.99,,2013-02-21 15:12:00,
2013-02-21 10:21:00,21.0,20.0,-100.00,NE,35,13.0,26.0,97,-99.99,,,-99.99,,2013-02-21 15:21:00,
2013-02-21 10:32:00,21.0,20.0,-100.00,NNE,25,9.0,16.0,96,-99.99,,,-99.99,,2013-02-21 15:32:00,
2013-02-21 10:42:00,21.0,20.0,-100.00,NNE,25,9.0,16.0,96,-99.99,,,-99.99,,2013-02-21 15:42:00,
2013-02-21 10:51:00,21.0,20.0,-100.00,NE,40,11.0,21.0,96,-99.99,,,-99.99,,2013-02-21 15:51:00,
2013-02-21 11:01:00,21.0,20.0,-100.00,North,5,10.0,18.0,96,-99.99,,,-99.99,,2013-02-21 16:01:00,
2013-02-21 11:12:00,21.0,20.0,-100.00,North,5,10.0,18.0,96,-99.99,,,-99.99,,2013-02-21 16:12:00,
2013-02-21 11:22:00,21.0,20.0,-100.00,NE,45,11.0,19.0,96,-99.99,,,-99.99,,2013-02-21 16:22:00,
2013-02-21 11:32:00,22.0,21.0,-100.00,NNW,345,6.0,14.0,96,-99.99,,,-99.99,,2013-02-21 16:32:00,
2013-02-21 11:42:00,22.0,21.0,-100.00,NNW,345,6.0,14.0,96,-99.99,,,-99.99,,2013-02-21 16:42:00,
2013-02-21 11:52:00,22.0,21.0,-100.00,NNE,25,11.0,17.0,96,-99.99,,,-99.99,,2013-02-21 16:52:00,
2013-02-21 12:01:00,22.0,21.0,-100.00,NNE,25,11.0,17.0,96,-99.99,,,-99.99,,2013-02-21 17:01:00,
2013-02-21 12:21:00,22.0,21.0,-100.00,NNE,30,11.0,18.0,94,-99.99,,,-99.99,,2013-02-21 17:21:00,
2013-02-21 12:32:00,22.0,21.0,-100.00,NNW,330,8.0,14.0,94,-99.99,,,-99.99,,2013-02-21 17:32:00,
2013-02-21 12:42:00,22.0,21.0,-100.00,NNW,330,8.0,14.0,94,-99.99,,,-99.99,,2013-02-21 17:42:00,
2013-02-21 12:52:00,23.0,22.0,-100.00,North,10,5.0,12.0,94,-99.99,,,-99.99,,2013-02-21 17:52:00,
2013-02-21 13:02:00,23.0,22.0,-100.00,North,10,5.0,12.0,94,-99.99,,,-99.99,,2013-02-21 18:02:00,
2013-02-21 13:22:00,24.0,21.0,-100.00,North,10,8.0,12.0,91,-99.99,,,-99.99,,2013-02-21 18:22:00,
2013-02-21 13:32:00,24.0,21.0,-100.00,North,350,7.0,14.0,91,-99.99,,,-99.99,,2013-02-21 18:32:00,
2013-02-21 13:42:00,24.0,21.0,-100.00,North,350,7.0,14.0,91,-99.99,,,-99.99,,2013-02-21 18:42:00,
2013-02-21 13:51:00,24.0,21.0,-100.00,North,5,8.0,17.0,91,-99.99,,,-99.99,,2013-02-21 18:51:00,
2013-02-21 14:01:00,24.0,21.0,-100.00,NNE,20,9.0,14.0,90,-99.99,,,-99.99,,2013-02-21 19:01:00,
2013-02-21 14:12:00,24.0,21.0,-100.00,NNE,20,9.0,14.0,90,-99.99,,,-99.99,,2013-02-21 19:12:00,
2013-02-21 14:21:00,24.0,21.0,-100.00,NE,35,10.0,14.0,89,-99.99,,,-99.99,,2013-02-21 19:21:00,
2013-02-21 14:32:00,25.0,22.0,-100.00,NNE,25,6.0,14.0,89,-99.99,,,-99.99,,2013-02-21 19:32:00,
2013-02-21 14:42:00,25.0,22.0,-100.00,NNE,25,6.0,14.0,89,-99.99,,,-99.99,,2013-02-21 19:42:00,
2013-02-21 14:51:00,24.0,22.0,-100.00,North,0,6.0,15.0,90,-99.99,,,-99.99,,2013-02-21 19:51:00,
2013-02-21 15:01:00,24.0,22.0,-100.00,North,10,6.0,18.0,90,-99.99,,,-99.99,,2013-02-21 20:01:00,
2013-02-21 15:11:00,24.0,22.0,-100.00,North,10,6.0,18.0,90,-99.99,,,-99.99,,2013-02-21 20:11:00,
2013-02-21 15:21:00,24.0,22.0,-100.00,NE,50,12.0,19.0,90,-99.99,,,-99.99,,2013-02-21 20:21:00,
2013-02-21 15:32:00,24.0,22.0,-100.00,NNE,15,8.0,14.0,91,-99.99,,,-99.99,,2013-02-21 20:32:00,
2013-02-21 15:41:00,24.0,22.0,-100.00,NNE,15,8.0,14.0,91,-99.99,,,-99.99,,2013-02-21 20:41:00,
2013-02-21 15:52:00,24.0,22.0,-100.00,NNE,30,8.0,15.0,91,-99.99,,,-99.99,,2013-02-21 20:52:00,
2013-02-21 16:02:00,24.0,22.0,-100.00,NE,35,10.0,15.0,91,-99.99,,,-99.99,,2013-02-21 21:02:00,
2013-02-21 16:11:00,24.0,22.0,-100.00,NE,35,10.0,15.0,91,-99.99,,,-99.99,,2013-02-21 21:11:00,
2013-02-21 16:21:00,24.0,22.0,-100.00,NE,45,9.0,-999.0,92,-99.99,,,-99.99,,2013-02-21 21:21:00,
2013-02-21 16:31:00,24.0,22.0,-100.00,NW,315,6.0,14.0,92,-99.99,,,-99.99,,2013-02-21 21:31:00,
2013-02-21 16:42:00,24.0,22.0,-100.00,NW,315,6.0,14.0,92,-99.99,,,-99.99,,2013-02-21 21:42:00,
2013-02-21 16:52:00,24.0,23.0,-100.00,NNE,30,11.0,16.0,93,-99.99,,,-99.99,,2013-02-21 21:52:00,
2013-02-21 17:01:00,24.0,22.0,-100.00,NE,40,10.0,21.0,93,-99.99,,,-99.99,,2013-02-21 22:01:00,
2013-02-21 17:11:00,24.0,22.0,-100.00,NE,40,10.0,21.0,93,-99.99,,,-99.99,,2013-02-21 22:11:00,
2013-02-21 17:21:00,24.0,22.0,-100.00,NE,40,7.0,16.0,94,-99.99,,,-99.99,,2013-02-21 22:21:00,
2013-02-21 17:32:00,24.0,22.0,-100.00,North,10,8.0,17.0,95,-99.99,,,-99.99,,2013-02-21 22:32:00,
2013-02-21 17:42:00,24.0,22.0,-100.00,North,10,8.0,17.0,95,-99.99,,,-99.99,,2013-02-21 22:42:00,
2013-02-21 17:52:00,24.0,23.0,-100.00,NNW,345,6.0,14.0,95,-99.99,,,-99.99,,2013-02-21 22:52:00,
2013-02-21 18:01:00,24.0,23.0,-100.00,NNW,345,6.0,14.0,95,-99.99,,,-99.99,,2013-02-21 23:01:00,
2013-02-21 18:21:00,23.0,22.0,-100.00,NE,40,9.0,17.0,95,-99.99,,,-99.99,,2013-02-21 23:21:00,
2013-02-21 18:32:00,23.0,22.0,-100.00,North,10,9.0,14.0,96,-99.99,,,-99.99,,2013-02-21 23:32:00,
2013-02-21 18:41:00,23.0,22.0,-100.00,North,10,9.0,14.0,96,-99.99,,,-99.99,,2013-02-21 23:41:00,
2013-02-21 18:52:00,22.0,21.0,-100.00,NE,50,9.0,17.0,97,-99.99,,,-99.99,,2013-02-21 23:52:00,
2013-02-21 19:01:00,22.0,21.0,-100.00,NE,50,9.0,17.0,97,-99.99,,,-99.99,,2013-02-22 00:01:00,
2013-02-21 19:11:00,22.0,21.0,-100.00,NE,50,9.0,17.0,97,-99.99,,,-99.99,,2013-02-22 00:11:00,
2013-02-21 19:21:00,22.0,21.0,-100.00,NE,35,4.0,15.0,98,-99.99,,,-99.99,,2013-02-22 00:21:00,
2013-02-21 19:32:00,22.0,21.0,-100.00,NE,35,6.0,14.0,98,-99.99,,,-99.99,,2013-02-22 00:32:00,
2013-02-21 19:42:00,22.0,21.0,-100.00,NE,35,6.0,14.0,98,-99.99,,,-99.99,,2013-02-22 00:42:00,
2013-02-21 19:51:00,21.0,21.0,-100.00,NE,35,7.0,13.0,99,-99.99,,,-99.99,,2013-02-22 00:51:00,
2013-02-21 20:01:00,21.0,20.0,-100.00,NE,40,6.0,13.0,98,-99.99,,,-99.99,,2013-02-22 01:01:00,
2013-02-21 20:11:00,21.0,20.0,-100.00,NE,40,6.0,13.0,98,-99.99,,,-99.99,,2013-02-22 01:11:00,
2013-02-21 20:21:00,21.0,20.0,-100.00,NE,40,7.0,14.0,98,-99.99,,,-99.99,,2013-02-22 01:21:00,
2013-02-21 20:32:00,21.0,20.0,-100.00,NNE,30,7.0,10.0,98,-99.99,,,-99.99,,2013-02-22 01:32:00,
2013-02-21 20:42:00,21.0,20.0,-100.00,NNE,30,7.0,10.0,98,-99.99,,,-99.99,,2013-02-22 01:42:00,
2013-02-21 20:50:00,20.0,20.0,-100.00,NNE,30,9.0,18.0,98,-99.99,,,-99.99,,2013-02-22 01:50:00,
2013-02-21 20:51:00,20.0,20.0,-100.00,NE,40,5.0,12.0,98,-99.99,,,-99.99,,2013-02-22 01:51:00,
2013-02-21 21:02:00,21.0,20.0,-100.00,NNE,25,5.0,9.0,98,-99.99,,,-99.99,,2013-02-22 02:02:00,
2013-02-21 21:11:00,21.0,20.0,-100.00,NNE,25,5.0,9.0,98,-99.99,,,-99.99,,2013-02-22 02:11:00,
2013-02-21 21:21:00,20.0,20.0,-100.00,NE,40,6.0,11.0,98,-99.99,,,-99.99,,2013-02-22 02:21:00,
2013-02-21 21:32:00,20.0,20.0,-100.00,NNE,30,9.0,18.0,98,-99.99,,,-99.99,,2013-02-22 02:32:00,
2013-02-21 21:42:00,20.0,20.0,-100.00,NNE,30,9.0,18.0,98,-99.99,,,-99.99,,2013-02-22 02:42:00,
2013-02-21 22:01:00,20.0,19.0,-100.00,NE,35,9.0,14.0,98,-99.99,,,-99.99,,2013-02-22 03:01:00,
2013-02-21 22:21:00,20.0,19.0,-100.00,NNE,30,7.0,14.0,98,-99.99,,,-99.99,,2013-02-22 03:21:00,
2013-02-21 22:32:00,20.0,19.0,-100.00,NE,35,9.0,14.0,99,-99.99,,,-99.99,,2013-02-22 03:32:00,
2013-02-21 22:42:00,20.0,19.0,-100.00,NE,35,9.0,14.0,99,-99.99,,,-99.99,,2013-02-22 03:42:00,
2013-02-21 22:51:00,19.0,19.0,-100.00,NE,50,4.0,13.0,99,-99.99,,,-99.99,,2013-02-22 03:51:00,
2013-02-21 23:02:00,19.0,19.0,-100.00,NNE,25,8.0,14.0,99,-99.99,,,-99.99,,2013-02-22 04:02:00,
2013-02-21 23:11:00,19.0,19.0,-100.00,NNE,25,8.0,14.0,99,-99.99,,,-99.99,,2013-02-22 04:11:00,
2013-02-21 23:21:00,19.0,19.0,-100.00,NE,40,8.0,12.0,99,-99.99,,,-99.99,,2013-02-22 04:21:00,
2013-02-21 23:32:00,19.0,19.0,-100.00,NE,35,9.0,12.0,99,-99.99,,,-99.99,,2013-02-22 04:32:00,
2013-02-21 23:42:00,19.0,19.0,-100.00,NE,35,9.0,12.0,99,-99.99,,,-99.99,,2013-02-22 04:42:00,
2013-02-21 23:51:00,19.0,19.0,-100.00,NE,35,4.0,14.0,99,-99.99,,,-99.99,,2013-02-22 04:51:00,